Meteo pe oră la Czysta

Astăzi, 22 Aprilie, Joi

Timp Temperatura Precipitaţii Vânt Presiune Umiditate
00:00 +8°C° 0 mm 3 m/s 736 mmHg 78%
01:00 +7°C° 0 mm 3 m/s 736 mmHg 80%
02:00 +7°C° 0 mm 3 m/s 736 mmHg 84%
03:00 +5°C° 0 mm 3 m/s 737 mmHg 87%
04:00 +4°C° 0 mm 3 m/s 737 mmHg 91%
05:00 +4°C° 0.2 mm 3 m/s 737 mmHg 91%
06:00 +4°C° 0.2 mm 3 m/s 737 mmHg 91%
07:00 +4°C° 0 mm 4 m/s 738 mmHg 91%
08:00 +4°C° 0.9 mm 4 m/s 738 mmHg 88%
09:00 +4°C° 0.9 mm 4 m/s 739 mmHg 85%
10:00 +3°C° 0.9 mm 5 m/s 739 mmHg 82%
11:00 +5°C° 0 mm 5 m/s 739 mmHg 69%
12:00 +5°C° 0 mm 6 m/s 739 mmHg 57%
13:00 +8°C° 0 mm 6 m/s 739 mmHg 44%
14:00 +8°C° 0 mm 6 m/s 739 mmHg 44%
15:00 +8°C° 0 mm 6 m/s 739 mmHg 44%
16:00 +8°C° 0 mm 6 m/s 739 mmHg 44%
17:00 +7°C° 0 mm 5 m/s 740 mmHg 50%
18:00 +5°C° 0 mm 4 m/s 740 mmHg 55%
19:00 +4°C° 0 mm 4 m/s 740 mmHg 60%
20:00 +3°C° 0 mm 3 m/s 740 mmHg 67%
21:00 +3°C° 0 mm 3 m/s 741 mmHg 74%
22:00 +2°C° 0 mm 3 m/s 741 mmHg 81%
23:00 +1°C° 0 mm 3 m/s 741 mmHg 84%

Mâine, 23 Aprilie, Vineri

Timp Temperatura Precipitaţii Vânt Presiune Umiditate
00:00 +1°C° 0 mm 3 m/s 741 mmHg 87%
01:00 0°C° 0 mm 3 m/s 741 mmHg 91%
02:00 0°C° 0 mm 3 m/s 741 mmHg 90%
03:00 0°C° 0 mm 3 m/s 741 mmHg 90%
04:00 -1°C° 0 mm 4 m/s 741 mmHg 89%
05:00 0°C° 0 mm 4 m/s 742 mmHg 82%
06:00 +1°C° 0 mm 4 m/s 742 mmHg 74%
07:00 +2°C° 0 mm 5 m/s 743 mmHg 67%
08:00 +3°C° 0 mm 5 m/s 743 mmHg 60%
09:00 +6°C° 0 mm 5 m/s 743 mmHg 53%
10:00 +7°C° 0 mm 6 m/s 743 mmHg 46%
11:00 +7°C° 0.1 mm 6 m/s 743 mmHg 45%
12:00 +7°C° 0.1 mm 6 m/s 743 mmHg 45%
13:00 +8°C° 0.1 mm 6 m/s 743 mmHg 45%
14:00 +7°C° 0.3 mm 6 m/s 743 mmHg 50%
15:00 +7°C° 0.3 mm 6 m/s 743 mmHg 56%
16:00 +5°C° 0.3 mm 6 m/s 743 mmHg 62%
17:00 +4°C° 0.1 mm 6 m/s 743 mmHg 68%
18:00 +3°C° 0.1 mm 5 m/s 744 mmHg 74%
19:00 +2°C° 0.1 mm 5 m/s 744 mmHg 80%
20:00 +1°C° 0.1 mm 4 m/s 744 mmHg 83%
21:00 0°C° 0.1 mm 4 m/s 744 mmHg 86%
22:00 +1°C° 0.1 mm 3 m/s 744 mmHg 89%
23:00 +1°C° 0 mm 3 m/s 744 mmHg 89%

Poimâine, 24 Aprilie, Sâmbătă

Timp Temperatura Precipitaţii Vânt Presiune Umiditate
00:00 +2°C° 0 mm 2 m/s 744 mmHg 90%
01:00 +2°C° 0 mm 2 m/s 744 mmHg 91%
02:00 +1°C° 0 mm 2 m/s 744 mmHg 92%
03:00 +1°C° 0 mm 2 m/s 744 mmHg 93%
04:00 -1°C° 0 mm 2 m/s 744 mmHg 94%
05:00 0°C° 0 mm 3 m/s 744 mmHg 85%
06:00 +2°C° 0 mm 3 m/s 744 mmHg 77%
07:00 +3°C° 0 mm 4 m/s 745 mmHg 69%
08:00 +4°C° 0 mm 4 m/s 745 mmHg 59%
09:00 +6°C° 0 mm 4 m/s 745 mmHg 50%
10:00 +7°C° 0 mm 4 m/s 745 mmHg 40%
11:00 +8°C° 0 mm 5 m/s 744 mmHg 39%
12:00 +8°C° 0 mm 5 m/s 744 mmHg 38%
13:00 +9°C° 0 mm 5 m/s 744 mmHg 37%
14:00 +8°C° 0.1 mm 5 m/s 744 mmHg 43%
15:00 +8°C° 0.1 mm 5 m/s 743 mmHg 50%
16:00 +8°C° 0.1 mm 5 m/s 743 mmHg 56%
17:00 +6°C° 0.2 mm 4 m/s 743 mmHg 64%
18:00 +5°C° 0.2 mm 3 m/s 743 mmHg 72%
19:00 +4°C° 0.2 mm 3 m/s 743 mmHg 80%
20:00 +3°C° 0 mm 3 m/s 743 mmHg 82%
21:00 +3°C° 0 mm 3 m/s 743 mmHg 85%
22:00 +2°C° 0 mm 3 m/s 743 mmHg 87%
23:00 +3°C° 0 mm 2 m/s 743 mmHg 89%

25 Aprilie, Duminică

Timp Temperatura Precipitaţii Vânt Presiune Umiditate
00:00 +2°C° 0 mm 2 m/s 744 mmHg 91%
01:00 +3°C° 0 mm 1 m/s 744 mmHg 92%
02:00 +2°C° 0 mm 1 m/s 744 mmHg 91%
03:00 +1°C° 0 mm 1 m/s 744 mmHg 90%
04:00 +1°C° 0 mm 1 m/s 744 mmHg 89%
05:00 +1°C° 0 mm 2 m/s 744 mmHg 82%
06:00 +2°C° 0 mm 2 m/s 744 mmHg 75%
07:00 +3°C° 0 mm 2 m/s 744 mmHg 67%
08:00 +4°C° 0 mm 3 m/s 744 mmHg 58%
09:00 +5°C° 0 mm 4 m/s 744 mmHg 49%
10:00 +6°C° 0 mm 4 m/s 744 mmHg 39%
11:00 +6°C° 0 mm 5 m/s 744 mmHg 37%
12:00 +7°C° 0 mm 5 m/s 743 mmHg 36%
13:00 +7°C° 0 mm 5 m/s 743 mmHg 34%
14:00 +7°C° 0 mm 5 m/s 743 mmHg 35%
15:00 +7°C° 0 mm 5 m/s 743 mmHg 36%
16:00 +7°C° 0 mm 5 m/s 743 mmHg 38%
17:00 +6°C° 0 mm 4 m/s 743 mmHg 46%
18:00 +4°C° 0 mm 3 m/s 743 mmHg 55%
19:00 +4°C° 0 mm 2 m/s 743 mmHg 64%
20:00 +3°C° 0 mm 2 m/s 743 mmHg 68%
21:00 +3°C° 0 mm 2 m/s 743 mmHg 73%
22:00 +3°C° 0 mm 1 m/s 743 mmHg 77%
23:00 +2°C° 0 mm 1 m/s 743 mmHg 79%

26 Aprilie, Luni

Timp Temperatura Precipitaţii Vânt Presiune Umiditate
00:00 +1°C° 0 mm 2 m/s 743 mmHg 81%
01:00 -1°C° 0 mm 2 m/s 742 mmHg 83%
02:00 -1°C° 0 mm 2 m/s 742 mmHg 82%
03:00 +1°C° 0 mm 1 m/s 742 mmHg 82%
04:00 +1°C° 0 mm 1 m/s 742 mmHg 81%
05:00 +2°C° 0 mm 1 m/s 742 mmHg 74%
06:00 +4°C° 0 mm 1 m/s 742 mmHg 67%
07:00 +5°C° 0 mm 1 m/s 741 mmHg 60%
08:00 +6°C° 0 mm 2 m/s 741 mmHg 55%
09:00 +7°C° 0 mm 2 m/s 741 mmHg 51%
10:00 +8°C° 0 mm 3 m/s 741 mmHg 47%
11:00 +8°C° 0.1 mm 4 m/s 740 mmHg 45%
12:00 +8°C° 0.1 mm 4 m/s 740 mmHg 43%
13:00 +9°C° 0.1 mm 5 m/s 739 mmHg 41%
14:00 +9°C° 0.1 mm 5 m/s 739 mmHg 43%
15:00 +8°C° 0.1 mm 5 m/s 739 mmHg 45%
16:00 +8°C° 0.1 mm 5 m/s 738 mmHg 47%
17:00 +7°C° 0 mm 4 m/s 738 mmHg 52%
18:00 +5°C° 0 mm 3 m/s 739 mmHg 56%
19:00 +5°C° 0 mm 2 m/s 739 mmHg 61%
20:00 +5°C° 0 mm 1 m/s 739 mmHg 63%
21:00 +4°C° 0 mm 1 m/s 739 mmHg 66%
22:00 +3°C° 0 mm 1 m/s 739 mmHg 69%
23:00 +2°C° 0 mm 1 m/s 739 mmHg 70%

27 Aprilie, Marţi

Timp Temperatura Precipitaţii Vânt Presiune Umiditate
00:00 +2°C° 0 mm 1 m/s 739 mmHg 71%
01:00 +1°C° 0 mm 0 m/s 739 mmHg 73%
02:00 0°C° 0 mm 0 m/s 739 mmHg 72%
03:00 +1°C° 0 mm 1 m/s 738 mmHg 72%
04:00 +1°C° 0 mm 1 m/s 738 mmHg 72%
05:00 +3°C° 0 mm 1 m/s 738 mmHg 66%
06:00 +3°C° 0 mm 2 m/s 738 mmHg 61%
07:00 +5°C° 0 mm 2 m/s 738 mmHg 55%
08:00 +5°C° 0 mm 3 m/s 738 mmHg 51%
09:00 +8°C° 0 mm 3 m/s 738 mmHg 46%
10:00 +9°C° 0 mm 3 m/s 738 mmHg 41%
11:00 +10°C° 0 mm 4 m/s 737 mmHg 41%
12:00 +10°C° 0 mm 4 m/s 737 mmHg 40%
13:00 +11°C° 0 mm 4 m/s 736 mmHg 40%
14:00 +10°C° 0 mm 5 m/s 736 mmHg 41%
15:00 +10°C° 0 mm 5 m/s 735 mmHg 43%
16:00 +10°C° 0 mm 5 m/s 735 mmHg 45%
17:00 +10°C° 0 mm 4 m/s 734 mmHg 50%
18:00 +8°C° 0 mm 4 m/s 734 mmHg 54%
19:00 +7°C° 0 mm 4 m/s 734 mmHg 59%
20:00 +7°C° 0 mm 4 m/s 733 mmHg 60%
21:00 +7°C° 0 mm 5 m/s 733 mmHg 61%
22:00 +6°C° 0 mm 5 m/s 733 mmHg 62%
23:00 +6°C° 0.1 mm 5 m/s 732 mmHg 67%
Arată mai mult

Formular de consimțământ

Meteoprog și furnizorii noștri de servicii pot stoca și accesa date personale, precum cookies, identificatori de dispozitiv sau alte tehnologii similare pe dispozitivul dumneavoastră și procesa astfel de date pentru a personaliza conținutul și reclamele, dar și pentru a oferi caracteristici de social media și pentru a analiza traficul.

  • Stocarea și/sau accesarea informațiilor pe dispozitivul dumneavoastră

    Cookies, identificatori de dispozitiv sau alte informații pot fi stocate sau accesate pe dispozitiv în scopurile indicate mai sus.

  • Reclame și conținut personalizat, evaluarea reclamelor și a conținutului, informații despre audiențe și dezvoltarea produselor

    Reclamele și conținutul pot fi personalizate pe baza unui profil. Pot fi adăugate date suplimentare pentru a personaliza mai bine reclamele și conținutul. Performanța reclamelor și conținutului poate fi măsurată. Pot fi obținute informații despre utilizatorii care au văzut reclamele și conținutul. Aceste date pot fi utilizate pentru a dezvolta sau îmbunătăți experiența utilizatorilor, sistemele și software-ul.

Dând clic pe ‘Sunt de acord’, permiteți utilizarea cookie-urilor menționate, a identificatorilor de dispozitiv, balizelor web sau altor tehnologii similare. Setările pot fi modificate din browser-ul dispozitivului dumneavoastră.

În anumite scopuri, interesele legitime pot prima asupra consimțământului. Puteți citi mai multe informații în acest sens în Politica privind Confidențialitatea Datelor și Cookie.